Location: Nitra
(0.0000°N, 18.0833°E)
Time: 02:52:31
(UTC+01:00)

Ariane H10-3 - Pass Details

Date: 25 September 2022
Orbit: 776 x 73888 km, 5.5° (Epoch: 01 December)

Event Time Altitude Azimuth Distance (km) Brightness Sun altitude
Rises 18:39:40 0° 258° (WSW) 3,334 8.1 -0.1°
Reaches altitude 10° 18:41:15 10° 255° (WSW) 2,606 7.0 -0.5°
Enters shadow 19:18:53 10° 89° (E) 13,979 8.2 -9.9°
Exits shadow 20:37:11 - 86° (E) 32,472 10.1 -29.5°
Maximum altitude 03:36:05 84° 0° (N) 69,360 12.0 -45.8°
Drops below altitude 10° 09:33:27 10° 276° (W) 77,131 12.3 43.6°
Sets 10:20:55 0° 276° (W) 76,776 12.3 55.4°
